Regional Weather Roundup
Issued by NWS Kansas City/Pleasant Hill, MO

Home | Current Version | Previous Version | Graphics & Text | Print | Product List | Glossary Off
Versions: 1 2 3 4 5 6 7 8 9 10 11 12 13 14 15 16 17 18 19 20 21 22 23 24 25 26 27

000
ASUS43 KEAX 212310
RWREAX

WEATHER ROUNDUP FOR EASTERN KANSAS AND NORTHWEST MISSOURI
NATIONAL WEATHER SERVICE KANSAS CITY/PLEASANT HILL MO
500 PM CST SAT JAN 21 2017

KSZ040-057-103>105-MOZ028-029-037-043-220000-
...KANSAS CITY METROPOLITAN AREA...

CITY           SKY/WX    TMP DP  RH WIND       PRES   REMARKS
K.C. INTL      MOCLDY    51  39  63 SE6       29.49S
K.C. DOWNTOWN  PTCLDY    54  40  59 S6        29.49S
LEES SUMMIT    CLOUDY    53  41  63 SE5       29.50R
OLATHE - IXD   CLOUDY    52  41  66 SE6       29.49R
OLATHE - OJC   CLOUDY    51  40  65 SE5       29.49R
LAWRENCE       CLOUDY    52  43  71 SE7       29.48S

$$

MOZ001>008-011>017-020>025-030>033-038>040-044>046-053-054-220000-
...NORTHERN AND CENTRAL MISSOURI...

CITY           SKY/WX    TMP DP  RH WIND       PRES   REMARKS
ST. JOSEPH     CLEAR     50  43  77 S5        29.50R
MOSBY          PTCLDY    52  41  66 CALM      29.51S
WARRENSBURG    LGT RAIN  52  43  71 CALM      29.50S
WHITEMAN AFB   CLOUDY    54  45  71 CALM      29.50S
CLINTON        CLOUDY    55  43  62 CALM      29.51R
SEDALIA        CLOUDY    57  40  52 CALM      29.53R
WARSAW         NOT AVBL
CHILLICOTHE      N/A     49  42  77 CALM      29.53R
KIRKSVILLE     CLEAR     45  41  86 CALM      29.53R

$$

MOZ041-047>049-056>058-063>065-088>090-097-220000-
...EASTERN AND SOUTHERN MISSOURI...

CITY           SKY/WX    TMP DP  RH WIND       PRES   REMARKS
ST. LOUIS INTL MOCLDY    65  37  35 W5        29.51R
SPIRIT OF STL  CLOUDY    58  44  60 CALM      29.50R
COLUMBIA       CLOUDY    58  39  49 SW5       29.52R
JEFFERSON CITY CLOUDY    61  37  41 NW3       29.51R
ROLLA          CLOUDY    60  41  49 SW3       29.50R
OSAGE BEACH    CLOUDY    60  38  43 CALM      29.52R
SPRINGFIELD    CLOUDY    60  42  51 CALM      29.48S
BRANSON        CLOUDY    64  39  39 SE6       29.49S
JOPLIN         CLOUDY    60  41  49 CALM      29.47R
WEST PLAINS    MOCLDY    65  43  44 S6        29.52R

$$

IAZ060-094-KSZ022-034>040-054-083-096-NEZ052-066-093-220000-
...KANSAS...SOUTHEAST NEBRASKA AND IOWA...

CITY           SKY/WX    TMP DP  RH WIND       PRES   REMARKS
TOPEKA         CLOUDY    54  41  61 CALM      29.47R
MANHATTAN      MOCLDY    56  39  53 N3        29.46R
EMPORIA        CLOUDY    50  41  71 E3        29.47R
CHANUTE        CLOUDY    52  41  66 E7        29.47S
WICHITA        LGT RAIN  47  43  86 E12       29.41S
OMAHA          PTCLDY    51  37  58 W3        29.47R
LINCOLN        CLEAR     52  37  56 W5        29.49R
FALLS CITY     CLEAR     52  39  61 SW3       29.48R
LAMONI         CLEAR     44  39  82 S7        29.51R
DES MOINES     MOCLDY    43  38  82 SW9       29.49R

$$





USA.gov is the U.S. government's official web portal to all federal, state and local government web resources and services.